Location: Moonridge Observatory
(39.2268°N, 77.7914°W)
Time: 06:27:57
(UTC-04:00)

CZ-2C R/B - Visible Passes

Search period start: 23 April 2014 00:00
Search period end: 03 May 2014 00:00
Orbit: 705 x 910 km, 98.1° (Epoch: 22 April)

Date Brightness Start Highest point End Pass type
(mag) Time Alt. Az. Time Alt. Az. Time Alt. Az.
23 Apr 5.4 03:44:07 10° ESE 03:47:31 20° ENE 03:50:58 10° NNE visible
23 Apr 3.2 05:22:41 10° SSW 05:27:07 40° W 05:31:39 10° NNW visible
24 Apr 5.9 03:21:42 10° E 03:23:22 12° ENE 03:25:03 10° NE visible
24 Apr 2.7 04:57:53 10° S 05:02:35 73° WSW 05:07:25 10° NNW visible
25 Apr 3.3 04:33:29 10° SSE 04:38:09 63° ENE 04:42:57 10° N visible
26 Apr 4.4 04:09:29 10° SE 04:13:48 36° ENE 04:18:13 10° N visible
26 Apr 4.1 05:50:12 10° SW 05:53:49 22° W 05:57:31 10° NW visible
27 Apr 5.3 03:45:58 10° ESE 03:49:33 22° ENE 03:53:12 10° NNE visible
27 Apr 3.4 05:24:48 10° SSW 05:29:11 38° W 05:33:43 10° NNW visible
28 Apr 5.8 03:23:17 10° E 03:25:23 13° ENE 03:27:32 10° NE visible
28 Apr 2.8 04:59:55 10° S 05:04:38 68° WSW 05:09:32 10° NNW visible
29 Apr 3.2 04:35:28 10° SSE 04:40:11 68° ENE 04:45:05 10° N visible
30 Apr 4.3 04:11:25 10° SE 04:15:50 39° ENE 04:20:24 10° N visible
01 May 5.2 03:47:49 10° ESE 03:51:34 23° ENE 03:55:27 10° NNE visible
01 May 3.5 05:26:53 10° SSW 05:31:15 35° W 05:35:47 10° NNW visible
02 May 5.8 03:24:55 10° E 03:27:25 14° ENE 03:29:57 10° NNE visible
02 May 2.9 05:01:58 10° S 05:06:41 64° W 05:11:39 10° NNW visible
